Find Starlink 35706

NORAD ID: 67051 Int'l Des: 2025-294 Owner: SPXS Country: US Constellation: starlink operational
LEOCIRCULAR

Aktuelle Ansicht

3D-Globus wird geladen...

Über Starlink 35706

Beschreibung wird geladen...

Nächste Überflüge

Passes for default location (London). Set your location on the main map for personalized predictions.

Höhenverlauf

Loading altitude history...

Zweizeiliger Elementsatz

1 67051U 25294X 26146.52883992 .00021518 00000-0 78865-3 0 9990
2 67051 42.9983 318.4817 0000841 252.7407 107.3353 15.27601769 26709
Epoch: 26. Mai 2026 • Age: 11 hours

Aktueller Status

Höhe 495.7 km
Geschwindigkeit 7.62 km/s
Subsatellitenpunkt -43.11°S, 4.74°W
Startdatum 11. Dez. 2025
Alter 0.4 years
Typ internet

Technische Details

Klassifizierung Payload
Masse 575.00 kg
Trockenmasse 530.00 kg
Gesamtmasse 575.00 kg
Länge 0.30 m
Durchmesser 4.10 m
Spannweite 29.00 m
Form Box + pan
Hersteller SPXS
Bus-Typ Starlink V2MO
Phasenstatus In Orbit
Besitzer/Staat SPXS/US

Most Searched